Location: Blackwall
(51.5097°N, 0.0016°W)
Time: 00:19:21
(UTC+00:00)

Spot 2 Rocket - Pass Details

Date: 15 May 2026
Orbit: 752 x 765 km, 98.3° (Epoch: 9 June)

Event Time Altitude Azimuth Distance (km) Brightness Sun altitude
Exits shadow 21:03:02 - 179° (S) 2,707 5.9 -9.9°
Reaches altitude 10° 21:04:08 10° 182° (S) 2,273 5.5 -10.1°
Maximum altitude 21:09:03 55° 260° (W) 910 4.1 -10.6°
Drops below altitude 10° 21:14:00 10° 338° (NNW) 2,296 7.3 -11.0°
Sets 21:16:22 0° 343° (NNW) 3,228 8.2 -11.3°
